Lynchburg, VA

4:26 AM EDT on August 21, 2019 (GMT -0400)
Lynchburg Regional-Glenn

Weather History for KLYH - July, 2019

Change the Weather History Date:

Tuesday, July 16, 2019

  Actual Average Record
Temperature  
Mean Temperature 81 °F 75 °F  
Max Temperature 93 °F 87 °F 103 °F (1934)
Min Temperature 68 °F 64 °F 54 °F (1903)
Degree Days  
Heating Degree Days 0 0  
Month to date heating degree days 0 0  
Since 1 June heating degree days 2 14  
Since 1 July heating degree days 0 0  
Cooling Degree Days 16 10  
Month to date cooling degree days 232 160  
Year to date cooling degree days 662 456  
Since 1 June cooling degree days 450 374  
Growing Degree Days 30 (Base 50)    
Moisture  
Dew Point 70 °F    
Average Humidity 73    
Maximum Humidity 97    
Minimum Humidity 49    
Precipitation  
Precipitation 0.00 in 0.15 in 1.87 in (1949)
Month to date precipitation 1.54 2.21  
Year to date precipitation 22.64 22.52  
Snow  
Snow 0.00 in - - ()
Month to date snowfall 0.0  
Since 1 June snowfall 0.0  
Since 1 July snowfall 0.0  
Snow Depth 0.00 in    
Sea Level Pressure  
Sea Level Pressure 30.08 in    
Wind  
Wind Speed 2 mph (SW)    
Max Wind Speed 12 mph    
Max Gust Speed 16 mph    
Visibility 10 miles    
Events      
T = Trace of Precipitation, MM = Missing Value Source: NWS Daily Summary

Daily Weather History Graph

Daily Weather History Graph

Search for Another Location

Airport or City:

Astronomy

Jul. 16, 2019 Rise Set
Actual Time 6:08 AM EDT 8:36 PM EDT
Civil Twilight 5:38 AM EDT 9:06 PM EDT
Nautical Twilight 5:01 AM EDT 9:43 PM EDT
Astronomical Twilight 4:19 AM EDT 10:25 PM EDT
Moon 8:41 PM EDT (7/16) 5:45 AM EDT (7/16)
Length of Visible Light 15h 28m
Length of Day
14h 28m
Full, 100% of the Moon is Illuminated
Jul 16
Full
Jul 16
Full
Jul 24
Last Quarter
Jul 31
New
Aug 7
First Quarter

Hourly Weather History & Observations

Time (EDT) Temp. Heat Index Dew Point Humidity Pressure Visibility Wind Dir Wind Speed Gust Speed Precip Events Conditions
12:54 AM 71.1 °F - 68.0 °F 90% 30.10 in 10.0 mi Calm Calm - N/A   Clear
1:54 AM 71.1 °F - 68.0 °F 90% 30.08 in 10.0 mi Calm Calm - N/A   Clear
2:54 AM 70.0 °F - 68.0 °F 93% 30.08 in 10.0 mi Calm Calm - N/A   Clear
3:54 AM 70.0 °F - 68.0 °F 93% 30.08 in 10.0 mi Calm Calm - N/A   Clear
4:54 AM 69.1 °F - 68.0 °F 96% 30.08 in 10.0 mi Calm Calm - N/A   Clear
5:54 AM 69.1 °F - 68.0 °F 96% 30.09 in 10.0 mi Calm Calm - N/A   Clear
6:54 AM 69.1 °F - 68.0 °F 96% 30.11 in 10.0 mi Calm Calm - N/A   Clear
7:54 AM 75.0 °F - 70.0 °F 84% 30.12 in 10.0 mi Calm Calm - N/A   Clear
8:54 AM 81.0 °F 84.9 °F 71.1 °F 72% 30.12 in 10.0 mi SSW 3.5 mph - N/A   Clear
9:54 AM 84.9 °F 89.4 °F 70.0 °F 61% 30.12 in 10.0 mi Calm Calm - N/A   Clear
10:54 AM 87.1 °F 92.8 °F 71.1 °F 59% 30.11 in 10.0 mi Variable 6.9 mph - N/A   Clear
11:54 AM 90.0 °F 95.4 °F 70.0 °F 52% 30.11 in 10.0 mi WSW 6.9 mph - N/A   Clear
12:54 PM 91.0 °F 96.6 °F 70.0 °F 50% 30.11 in 10.0 mi Variable 6.9 mph - N/A   Clear
1:54 PM 91.9 °F 97.4 °F 70.0 °F 48% 30.09 in 10.0 mi SW 9.2 mph - N/A   Clear
2:54 PM 89.1 °F 94.1 °F 70.0 °F 53% 30.08 in 10.0 mi SW 5.8 mph - N/A   Clear
3:54 PM 89.1 °F 96.0 °F 72.0 °F 57% 30.06 in 10.0 mi SW 5.8 mph - N/A   Clear
4:54 PM 89.1 °F 93.7 °F 69.1 °F 52% 30.06 in 10.0 mi Variable 4.6 mph - N/A   Clear
5:54 PM 89.1 °F 96.0 °F 72.0 °F 57% 30.04 in 10.0 mi SSW 3.5 mph - N/A   Clear
6:54 PM 89.1 °F 93.7 °F 69.1 °F 52% 30.04 in 10.0 mi SW 3.5 mph - N/A   Clear
7:54 PM 82.9 °F 89.4 °F 73.9 °F 74% 30.04 in 10.0 mi Calm Calm - N/A   Clear
8:54 PM 80.1 °F 84.2 °F 73.0 °F 79% 30.05 in 10.0 mi Calm Calm - N/A   Clear
9:54 PM 77.0 °F - 73.0 °F 88% 30.07 in 10.0 mi Calm Calm - N/A   Clear
10:54 PM 75.0 °F - 72.0 °F 90% 30.07 in 10.0 mi Calm Calm - N/A   Clear
11:54 PM 75.0 °F - 72.0 °F 90% 30.06 in 10.0 mi Calm Calm - N/A   Clear